This is the latest recevied weather packets stored in our database for station/object WL7CLI. If no packets are shown the sender has not sent any weather packets the latest 10 day(s).
| Time | Temp. | Humidity | Pressure | Rain* | Wind** | Luminosity | Snow |
|---|---|---|---|---|---|---|---|
| 1777595773 | 11.67° C | 44% | 1017.2 hPa | 0 mm | - | - | - |
| 1777595304 | 11.67° C | 42% | 1016.7 hPa | 0 mm | - | - | - |
| 1777594733 | 11.67° C | 42% | 1017 hPa | 0 mm | - | - | - |
| 1777594572 | 11.67° C | 42% | 1017 hPa | 0 mm | - | - | - |
| 1777593533 | 12.22° C | 41% | 1016.9 hPa | 0 mm | - | - | - |
| 1777593504 | 12.22° C | 41% | 1016.5 hPa | 0 mm | - | - | - |
| 1777593372 | 12.22° C | 40% | 1016.9 hPa | 0 mm | - | - | - |
| 1777592333 | 12.22° C | 40% | 1016.7 hPa | 0 mm | - | - | - |
| 1777591704 | 12.78° C | 38% | 1016.4 hPa | 0 mm | - | - | - |
| 1777591133 | 12.78° C | 37% | 1016.6 hPa | 0 mm | - | - | - |
| 1777590972 | 12.78° C | 37% | 1016.5 hPa | 0 mm | - | - | - |
| 1777589933 | 12.78° C | 39% | 1016.6 hPa | 0 mm | - | - | - |
| 1777589903 | 12.78° C | 39% | 1016.3 hPa | 0 mm | - | - | - |
| 1777589773 | 12.78° C | 37% | 1016.5 hPa | 0 mm | - | - | - |
| 1777588733 | 13.33° C | 39% | 1016.4 hPa | 0 mm | - | - | - |
| 1777588572 | 13.33° C | 38% | 1016.4 hPa | 0 mm | - | - | - |
| 1777588147 | 13.33° C | 37% | 1016.4 hPa | 0 mm | - | - | - |
| 1777588104 | 13.33° C | 38% | 1016.1 hPa | 0 mm | - | - | - |
| 1777587897 | 13.33° C | 37% | 1016.4 hPa | 0 mm | - | - | - |
| 1777587372 | 13.33° C | 39% | 1016.4 hPa | 0 mm | - | - | - |
| 1777586696 | 13.33° C | 40% | 1016.3 hPa | 0 mm | - | - | - |
| 1777586304 | 13.33° C | 43% | 1016.1 hPa | 0 mm | - | - | - |
| 1777586171 | 13.33° C | 41% | 1016.3 hPa | 0 mm | - | - | - |
| 1777585498 | 13.33° C | 43% | 1016.4 hPa | 0 mm | - | - | - |
| 1777584971 | 13.33° C | 44% | 1016.4 hPa | 0 mm | - | - | - |
* Rain latest hour (hover to see other rain measurements)
** Current wind speed in m/s (hover to see current wind gust speed)